Regional Weather Roundup
Issued by NWS

Home | Current Version | Previous Version | Text Only | Print | Product List | Glossary Off
Versions: 1 2 3 4 5 6 7 8 9 10 11 12 13 14 15 16 17 18 19 20 21 22 23 24 25 26 27 28 29 30 31 32 33 34 35 36 37 38 39 40 41 42 43 44 45 46 47 48 49 50

000
ASUS43 KLOT 011812
RWRIL

ILLINOIS REGIONAL WEATHER ROUNDUP
NATIONAL WEATHER SERVICE CHICAGO/ROMEOVILLE IL
100 PM CDT SAT AUG 01 2015

NOTE: "FAIR" INDICATES FEW OR NO CLOUDS BELOW 12,000 FEET WITH NO
SIGNIFICANT WEATHER AND/OR OBSTRUCTIONS TO VISIBILITY.

* THESE STATIONS ARE NOT UNDER NWS QUALITY CONTROL. THEY ALSO MAY NOT
  REPORT WEATHER SUCH AS PRECIPITATION OR FOG.

ILZ001-002-007-009-015-016-024-011900-
NORTHWEST ILLINOIS

CITY           SKY/WX    TMP DP  RH WIND       PRES   REMARKS
MOLINE         MOSUNNY   86  60  41 SW13G20   29.99F HX  86
6HR MIN TEMP:  62; 6HR MAX TEMP:  87;

STERLING*      SUNNY     84  63  48 W9G16     29.96F HX  85
SAVANNA*       SUNNY     85  59  40 W9        29.98F HX  85
$$

ILZ003-004-008-010-011-017-018-011900-
NORTH CENTRAL ILLINOIS

CITY           SKY/WX    TMP DP  RH WIND       PRES   REMARKS
ROCKFORD       MOSUNNY   85  58  39 SW13      29.98F HX  84
6HR MIN TEMP:  60; 6HR MAX TEMP:  85;

FREEPORT*      SUNNY     82  60  46 W12G18    29.99F HX  82
ROCHELLE*      SUNNY     82  60  48 W9G16     30.00F HX  82
DE KALB*       SUNNY     83  61  47 W8        30.00F HX  83
PERU*          MOSUNNY   83  57  40 SW8       30.00F HX  82
$$

ILZ005-006-012>014-019>023-011900-
NORTHEAST ILLINOIS

CITY           SKY/WX    TMP DP  RH WIND       PRES   REMARKS
CHICAGO-OHARE  MOSUNNY   83  55  38 W14       29.97F HX  82
6HR MIN TEMP:  66; 6HR MAX TEMP:  84;

CHICAGO-MIDWAY MOSUNNY   85  52  32 W13       29.97F HX  83
6HR MIN TEMP:  69; 6HR MAX TEMP:  86;

AURORA         SUNNY     84  57  39 W10       29.99F HX  83
6HR MIN TEMP:  60; 6HR MAX TEMP:  84;

LANSING*       MOSUNNY   84  54  35 W12G20    29.98F HX  83
JOLIET*        SUNNY     85  59  41 W9        29.99F HX  84
WAUKEGAN       MOSUNNY   82  59  45 W10       29.96F HX  82
6HR MIN TEMP:  63; 6HR MAX TEMP:  82;

DUPAGE AIRPORT SUNNY     83  56  39 W14       29.98F HX  82
6HR MIN TEMP:  62; 6HR MAX TEMP:  84;

KANKAKEE*      SUNNY     84  60  45 W9        30.00F HX  84
WHEELING       MOSUNNY   83  54  36 NW12G21   29.98F HX  82
6HR MIN TEMP:  66; 6HR MAX TEMP:  84;

MORRIS*        SUNNY     83  58  43 W8        29.98F HX  82
ROMEOVILLE*    SUNNY     82  55  39 W10       29.99F HX  81
NORTHERLY ISL    N/A     82  51  34 SW10        N/A  HX  81
$$

LMZ740>746-011900-
SOUTHERN LAKE MICHIGAN

STATION/POSITION SKY/WX   TEMP    WIND        PRES    VSBY  WAVE
                          AIR SEA DIR/SP/G                  HT/PER
                          (F)     (DEG/KT/KT) (MB)    (MI)  (FT/S)
HARRISON CRIB              79     290/ 11/ 14   N/A
BURNHAM HARBOR             83     290/ 11/ 14   N/A
CALUMET HARBOR             82     280/  5/  9   N/A
BURNS HARBOR               79     250/  3/  4 1016.3S
MICHIGAN CITY              74     220/  9/ 10   N/A
MICHIGAN CITY 6N           76 74  230/  2/  4   N/A           2/ 4
ST. JOSEPH                 73 74  270/  8/  8   N/A           2/ 4
$$

ILZ025>027-034>036-040-047-049-050-058-095>099-011900-
WEST-CENTRAL ILLINOIS

CITY           SKY/WX    TMP DP  RH WIND       PRES   REMARKS
QUINCY         PTSUNNY   83  62  49 S8        30.03F HX  84
GALESBURG*     PTSUNNY   81  62  52 S9        30.02F HX  82
MACOMB*        PTSUNNY   83  61  47 SW6       30.04F HX  84
JACKSONVILLE*  MOSUNNY   86  64  48 SW7       30.03F HX  87
PITTSFIELD*    PTSUNNY   83  65  54 S5        30.04F HX  84
$$

ILZ028>032-037-038-041>044-048-051>054-059>061-011900-
CENTRAL ILLINOIS

CITY           SKY/WX    TMP DP  RH WIND       PRES   REMARKS
PONTIAC        SUNNY     82  65  55 SW13      30.02F HX  84
BLOOMINGTON    MOSUNNY   82  61  49 W9        30.05F HX  82
DECATUR        MOSUNNY   87  54  32 VRB5      30.03F HX  85
PEORIA         PTSUNNY   86  60  41 W9        30.02F HX  86
6HR MIN TEMP:  65; 6HR MAX TEMP:  87;

LACON*         MOSUNNY   82  62  50 SW7       30.00F HX  83
LINCOLN*       PTSUNNY   85  56  36 S3        30.02F HX  84
SPRINGFIELD    MOSUNNY   87  53  31 CALM      30.03F HX  85
6HR MIN TEMP:  65; 6HR MAX TEMP:  87;

TAYLORVILLE    MOSUNNY   82  55  39 CALM      30.04F HX  82
$$

ILZ033-039-045-046-055>057-062-063-011900-
EAST-CENTRAL ILLINOIS

CITY           SKY/WX    TMP DP  RH WIND       PRES   REMARKS
CHAMPAIGN      MOSUNNY   83  57  41 W5        30.04F HX  82
DANVILLE*      SUNNY     81  60  49 CALM      30.01F HX  81
RANTOUL*       MOSUNNY   84  57  38 W6        30.03F HX  83
MATTOON        SUNNY     84  51  31 NW8       30.04F HX  82
PARIS*         SUNNY     83  52  34 NW6       30.05S HX  82
$$

ILZ079-100>102-011900-
SOUTHWEST ILLINOIS

CITY           SKY/WX    TMP DP  RH WIND       PRES   REMARKS
ALTON          PTSUNNY   82  61  47 CALM      30.05F HX  83
BELLEVILLE     PTSUNNY   84  66  54 VRB5      30.03F HX  86
CAHOKIA*       MOSUNNY   86  58  38 SE6       30.04F HX  85
SPARTA*        SUNNY     84  62  46 CALM      30.05F HX  84
$$

ILZ064>066-069>071-074>076-080>082-084>086-088>090-092>094-011900-
SOUTH-CENTRAL ILLINOIS

CITY           SKY/WX    TMP DP  RH WIND       PRES   REMARKS
CARBONDALE     SUNNY     85  62  46 E5        30.04F HX  85
6HR MIN TEMP:  70; 6HR MAX TEMP:  86;

CAIRO*         SUNNY     86  72  61 CALM      30.03F HX  92
EFFINGHAM*     SUNNY     86  48  26 NE3       30.06S HX  83
MARION         MOSUNNY   86  63  45 SE7       30.05F HX  87
MT. VERNON     SUNNY     84  57  39 CALM      30.05F HX  83
CENTRALIA*     SUNNY     85  54  33 N5        30.04F HX  84
SALEM*         SUNNY     86  55  34 NE3       30.05F HX  85
METROPOLIS*    SUNNY     86  72  62 CALM      30.03F HX  93
$$

ILZ067-068-072-073-078-083-087-091-011900-
SOUTHEAST ILLINOIS

CITY           SKY/WX    TMP DP  RH WIND       PRES   REMARKS
LAWRENCEVILLE  SUNNY     85  55  35 VRB5      30.04F HX  83
FLORA*         SUNNY     85  56  38 NW3       30.04F HX  83
FAIRFIELD*     SUNNY     84  61  46 NW7       30.03F HX  84
HARRISBURG*    SUNNY     84  62  48 E5        30.05F HX  84
ROBINSON*      SUNNY     82  56  39 W5        30.05F HX  82
CARMI*         SUNNY     84  56  39 CALM      30.03F HX  83
$$

ABBREVIATIONS USED IN REMARKS
   TC - TEMPERATURE IN CELSIUS
  WCI - WIND CHILL INDEX
   HX - HEAT INDEX
  VSB - VISIBILITY
$$




USA.gov is the U.S. government's official web portal to all federal, state and local government web resources and services.